Location: Olomouc
(49.5830°N, 17.2500°E)
Time: 20:55:54
(UTC+02:00)

ISS - Pass Details

Date: 15 May 2021
Orbit: 417 x 422 km, 51.6° (Epoch: 14 June)

Event Time Altitude Azimuth Distance (km) Brightness Sun altitude
Rises 22:01:48 0° 225° (SW) 2,354 0.0 -12.2°
Reaches altitude 10° 22:03:58 10° 216° (SW) 1,494 -1.1 -12.4°
Maximum altitude 22:07:05 36° 148° (SSE) 679 -3.2 -12.7°
Drops below altitude 10° 22:10:13 10° 80° (E) 1,505 -1.2 -13.0°
Sets 22:12:25 0° 72° (ENE) 2,373 -0.1 -13.2°
